Location: Newark
(47.7394°N, 8.0008°E)
Time: 22:54:24
(UTC+00:00)

N. Korean satellite - Pass Details

Date: 21 December 2019
Orbit: 454 x 507 km, 97.2° (Epoch: 21 January)

Event Time Altitude Azimuth Distance (km) Brightness Sun altitude
Rises 17:11:52 0° 196° (SSW) 2,581 10.8 -14.8°
Reaches altitude 10° 17:14:15 10° 211° (SSW) 1,695 10.0 -15.2°
Maximum altitude 17:17:14 23° 266° (W) 1,077 9.2 -15.7°
Drops below altitude 10° 17:20:12 10° 321° (NW) 1,684 9.6 -16.2°
Sets 17:22:34 0° 336° (NNW) 2,560 10.3 -16.6°
